Terminal Aerodrome Forecast
Issued by NWS Twin Cities, MN

Home | Current Version | Previous Version | Text Only | Print | Product List | Glossary Off
Versions: 1 2 3 4 5 6 7 8 9 10 11 12 13 14 15 16 17 18 19 20 21 22 23 24 25 26 27 28

253
FTUS43 KMPX 282325 CCA
TAFMSP
TAF COR
KMSP 282325Z 2900/3006 30016G25KT P6SM VCSH BKN100
      TEMPO 2900/2902 30020G40KT 6SM -SHRA BKN050
     FM290300 28008KT P6SM SCT100
     FM290900 28010KT P6SM BKN050
     FM291200 28011G17KT P6SM BKN025
     FM291500 29018G26KT P6SM VCSH SCT015 OVC025
      TEMPO 2920/2924 5SM -SHRA BR BKN015 OVC020
     FM300100 30015KT P6SM OVC025=

USA.gov is the U.S. government's official web portal to all federal, state and local government web resources and services.